Weather in Shalazhi

Russia / Chechen Republic     43°05′42″N   45°21′30″E
temp.,
°C
wind,
m/s
gust,
m/s
humid.,
%
clouds,
%
prec.,
mm/h
press.,
hPa
HPBL,
m
27 july, tue
tue2700:00+16ssw229492 1.1 101719
03:00+15s2192100 1.5 101619
06:00+16w119319 0.1 101654
09:00+17n229797 0.3 1015301
12:00+16nw1198100 0.7 1016111
15:00+16n1299100 3.4 1017151
18:00+15ssw1194100 1.0 101856
21:00+14wnw1197100 1.3 101967
28 july, wed
wed2800:00+14n12100100 1.7 1018150
03:00+12nnw1299100 5.6 1019166
06:00+12nne1198100 0.8 101996
09:00+11n1198100 1.1 1020123
12:00+12n1197100 0.2 1020167
15:00+12nnw1196100 0.2 1019159
18:00+13n119267 0.0 1019238
21:00+12ssw229428 0.0 102024
29 july, thu
thu2900:00+12s219018 0.0 101813
03:00+12s22882 0.0 101717
06:00+14s11843 0.0 101723
09:00+19nne21633 0.0 1016700
12:00+21nne326150 0.2 10151025
15:00+21ne226372 0.7 1014917
18:00+20ne116823 0.3 101457
21:00+15ssw327530 0.4 101630
30 july, fri
fri3000:00+15ssw32765 0.0 101536
03:00+15ssw32752 0.0 101433
06:00+16ssw22751 0.0 101535
09:00+22nne21562 0.0 1014892
12:00+24nne325345 0.2 10131386
15:00+24nne225539 1.1 10121284
18:00+21nw1172100 0.8 101215
21:00+17ssw327893 0.9 101430
31 july, sat
sat3100:00+16ssw327787 0.1 101235
03:00+16ssw327410 0.1 101234
06:00+16ssw227412 0.0 101336
09:00+23nne21543 0.0 1011810
12:00+25nne325115 0.1 10101396
15:00+24nne225780 1.4 10101188
18:00+22nw0173100 1.3 101115
21:00+18ssw337567 2.3 101350